Find Kosmos-2342

NORAD ID: 24800 Int'l Des: 1997-022 Owner: PVO Country: RU operational
MEOELLIPTICALHEO_ELLIPTICALSEMI_SYNC

Live Position

Loading 3D Globe...

About Kosmos-2342

Description loading...

Upcoming Passes

Passes for default location (London). Set your location on the main map for personalized predictions.

Altitude History

Loading altitude history...

Two-Line Element Set

1 24800U 97022A 26105.75076413 -.00001129 00000-0 00000+0 0 9994
2 24800 67.5736 253.4092 6545973 128.9513 310.0483 1.99562783211163
Epoch: Apr 15, 2026 • Age: 11 hours

Current Status

Altitude 29725.7 km
Velocity 2.67 km/s
Sub-Earth Point -21.37°S, 30.18°W
Launch Date May 14, 1997
Age 28.9 years
Type other

Technical Details

Classification Payload
Mass 1250.00 kg
Dry Mass 1150.00 kg
Total Mass 1250.00 kg
Length 4.00 m
Diameter 2.00 m
Span 5.00 m
Shape Cyl + 2 Pan
Manufacturer NPOL/KOMET
Bus Type Oko
Phase Status In Orbit
Owner/State PVO/RU

Most Searched